Vorticity
8 2 9 8 8 11 6 -20 31 16 -16 23 7 6 10 -0 7 6 2 4 4 5 5 6 7 6 7 9 8 10 12 12 11 9 7 6 4 4 5 5 7 9 5 6
8 11 7 6 9 9 7 16 -13 22 15 3 16 8 9 6 5 5 5 4 4 5 4 6 9 8 11 9 10 12 11 10 9 7 6 5 5 4 4 6 8 5 5 5
6 13 4 5 3 -4 19 5 4 -6 20 8 3 16 10 6 9 8 7 6 4 6 8 8 8 13 10 10 11 11 10 9 9 7 6 5 5 5 5 7 6 5 5 6
12 20 -6 13 7 8 -1 12 16 3 19 -2 10 1 3 27 9 6 9 10 11 11 10 8 12 10 8 9 11 10 9 10 7 6 6 5 5 5 6 7 5 4 4 6
9 21 7 11 12 7 11 18 17 9 1 1 6 8 37 29 7 6 4 8 11 10 10 14 8 7 10 13 11 10 10 8 7 7 7 6 4 4 7 5 4 5 6 8
7 20 4 9 9 3 0 8 8 8 7 22 13 -9 22 23 18 15 12 19 13 19 9 7 9 12 10 9 9 9 9 8 7 7 6 5 5 6 5 3 5 6 7 9
17 10 4 10 12 5 2 13 9 11 13 1 16 21 -22 -6 4 11 15 13 4 4 6 8 10 9 10 8 8 7 7 6 6 6 5 5 5 7 4 4 6 6 7 7
4 16 3 20 5 3 5 -2 -1 8 7 2 18 13 11 21 28 10 10 13 13 5 10 11 11 9 7 10 10 9 8 8 8 7 6 6 6 5 5 6 6 6 6 6
7 15 6 19 7 1 29 7 4 -4 11 13 8 15 -3 -0 1 4 4 6 10 10 10 14 7 7 5 3 3 4 5 6 6 6 6 6 7 7 7 7 6 6 5 5
15 12 16 1 10 6 -12 21 15 10 5 8 15 19 -7 2 22 17 13 8 8 7 3 3 6 3 0 0 3 9 12 10 9 9 7 6 6 5 5 5 4 3 4 4
15 3 23 15 5 14 5 1 -1 1 -1 8 4 21 6 9 14 6 9 7 1 4 10 15 5 -1 -3 4 5 5 16 14 10 7 6 6 6 6 7 7 7 7 6 6
4 8 10 9 13 13 8 6 6 -10 23 0 3 18 -4 2 8 8 1 0 9 14 9 7 1 -3 0 3 1 12 13 12 9 8 7 5 6 9 8 7 7 7 6 5
20 11 9 20 18 14 8 10 6 2 -6 14 -4 -1 -0 2 7 8 1 8 14 9 6 0 -1 3 3 2 13 17 10 9 10 9 8 8 9 11 11 10 8 6 5 5
8 7 -6 -4 -5 -1 17 24 28 7 -1 -6 -30 -8 -10 -4 -7 12 15 10 6 5 -3 3 0 5 18 19 13 9 10 9 8 6 5 5 7 10 12 11 9 7 6 6
8 7 10 9 9 8 6 3 2 3 12 -13 -3 -3 -2 -4 -1 13 9 9 6 -4 -5 7 17 14 13 13 13 13 13 10 7 6 6 6 8 9 11 11 8 8 8 6
9 3 10 12 10 9 7 8 6 6 5 3 5 -1 15 18 14 9 9 7 -6 14 20 19 13 9 16 7 1 4 8 11 12 13 14 13 9 4 0 -1 -2 -3 1 7
10 7 7 21 14 13 37 29 30 20 18 14 14 13 17 17 23 17 15 20 15 12 8 17 3 -2 2 9 12 10 9 8 10 8 7 5 4 6 7 6 5 4 5 6
-4 5 12 7 8 22 20 19 17 14 10 8 11 12 4 5 10 12 11 7 7 13 -3 -3 6 9 7 5 6 11 13 13 11 7 6 8 10 12 11 11 11 11 12 12
9 10 -0 0 19 -16 -14 -2 -2 -6 -3 3 5 14 10 11 13 8 7 8 14 -4 -6 4 7 4 3 6 11 12 12 13 12 12 12 10 7 8 9 9 10 12 11 10
27 19 -8 18 5 -1 10 14 9 14 16 16 17 21 18 13 9 13 9 7 1 -7 -1 9 20 8 15 13 11 11 11 11 10 10 9 9 8 9 8 9 12 13 14 15
14 16 3 4 -14 17 10 9 3 19 -8 11 7 5 8 6 -1 -8 -11 3 13 12 9 20 9 14 13 13 12 10 8 7 9 9 7 7 8 11 13 15 15 15 14 12
9 14 21 41 10 20 29 21 10 5 0 -9 -8 0 3 8 16 16 6 11 15 11 8 20 13 6 8 8 7 6 6 6 6 8 9 11 13 14 17 17 16 14 15 15
12 2 -13 -10 5 -15 -6 -8 -8 -7 8 2 -1 9 19 9 2 13 12 5 19 25 10 12 11 8 4 5 5 3 5 6 5 7 8 12 15 17 16 16 16 15 14 10
1 6 3 11 21 12 14 2 -16 -3 14 28 26 13 13 8 1 6 30 17 19 11 9 5 2 2 1 1 3 5 10 10 10 12 14 17 15 14 14 16 14 13 12 13
6 2 5 8 10 4 1 20 21 12 5 14 6 1 5 17 22 20 17 15 8 4 2 1 3 6 9 4 -4 7 17 16 13 13 16 12 9 9 9 8 5 6 9 13
11 15 21 26 13 18 3 8 11 11 2 10 10 10 15 15 25 15 6 3 1 -0 1 2 4 12 4 2 7 16 21 18 14 12 9 9 9 10 11 13 14 14 14 12
Height
3103 3108 3111 3116 3121 3124 3127 3131 3132 3135 3138 3139 3141 3141 3144 3144 3145 3146 3147 3147 3147 3147 3148 3148 3147 3146 3145 3144 3143 3142 3142 3141 3141 3140 3140 3139 3138 3136 3135 3133 3131 3129 3126 3124
3106 3110 3114 3117 3121 3124 3127 3130 3132 3134 3136 3138 3137 3137 3140 3139 3140 3142 3143 3143 3143 3143 3143 3143 3143 3143 3141 3140 3139 3138 3138 3138 3138 3137 3137 3136 3135 3133 3131 3130 3128 3126 3123 3121
3106 3111 3114 3117 3121 3124 3127 3129 3131 3134 3134 3136 3136 3133 3135 3135 3136 3137 3138 3138 3138 3139 3139 3139 3139 3138 3137 3136 3136 3136 3135 3135 3135 3135 3134 3133 3131 3130 3129 3127 3125 3122 3120 3117
3109 3112 3115 3118 3121 3124 3126 3128 3130 3132 3134 3135 3136 3132 3129 3130 3131 3133 3134 3134 3134 3134 3135 3134 3134 3133 3133 3133 3133 3133 3132 3132 3132 3131 3130 3129 3128 3127 3125 3122 3121 3119 3116 3113
3110 3111 3115 3117 3120 3123 3126 3126 3129 3131 3133 3133 3133 3134 3124 3126 3127 3128 3130 3130 3130 3131 3131 3130 3130 3130 3130 3130 3130 3129 3129 3129 3128 3128 3127 3126 3125 3123 3121 3120 3118 3115 3112 3109
3109 3112 3115 3118 3120 3123 3125 3127 3129 3131 3132 3131 3129 3131 3122 3122 3123 3123 3125 3126 3127 3127 3128 3128 3127 3127 3127 3127 3127 3127 3127 3126 3125 3124 3123 3122 3121 3119 3117 3115 3113 3110 3107 3105
3108 3111 3113 3116 3119 3122 3125 3126 3129 3134 3134 3130 3126 3127 3120 3119 3120 3121 3122 3123 3124 3125 3124 3124 3123 3124 3125 3125 3124 3124 3122 3121 3120 3119 3119 3117 3116 3114 3113 3111 3108 3106 3103 3101
3108 3112 3113 3114 3117 3120 3122 3125 3125 3132 3133 3126 3125 3120 3116 3116 3116 3118 3119 3120 3121 3121 3121 3121 3121 3122 3122 3122 3122 3121 3120 3119 3118 3116 3115 3113 3111 3110 3108 3106 3103 3101 3099 3097
3107 3108 3111 3113 3116 3120 3121 3123 3125 3126 3127 3127 3121 3117 3116 3114 3115 3116 3116 3117 3117 3117 3118 3119 3119 3119 3119 3118 3117 3116 3115 3113 3112 3110 3109 3107 3106 3104 3102 3100 3098 3096 3094 3091
3106 3107 3110 3112 3115 3117 3119 3121 3124 3125 3127 3126 3117 3114 3111 3111 3112 3112 3113 3114 3114 3114 3114 3115 3115 3114 3114 3113 3112 3111 3109 3107 3105 3104 3102 3101 3100 3098 3096 3094 3092 3090 3087 3085
3106 3107 3110 3112 3113 3114 3117 3118 3120 3122 3122 3121 3121 3111 3109 3108 3109 3110 3110 3110 3111 3112 3112 3111 3111 3110 3110 3109 3107 3105 3103 3101 3099 3097 3096 3095 3093 3091 3090 3087 3085 3083 3080 3078
3105 3106 3107 3109 3109 3111 3112 3113 3116 3117 3117 3116 3114 3106 3105 3106 3107 3108 3108 3109 3108 3107 3107 3107 3107 3106 3104 3102 3100 3098 3096 3094 3092 3091 3089 3087 3085 3082 3080 3079 3077 3075 3073 3070
3103 3104 3105 3107 3110 3107 3107 3108 3110 3112 3112 3109 3110 3104 3103 3103 3104 3104 3104 3104 3103 3102 3102 3102 3100 3099 3097 3096 3095 3092 3090 3088 3085 3083 3081 3079 3076 3074 3072 3069 3067 3065 3063 3061
3103 3102 3103 3103 3104 3104 3104 3105 3106 3108 3108 3102 3099 3098 3100 3100 3100 3100 3099 3098 3097 3096 3096 3095 3093 3092 3090 3089 3088 3086 3083 3079 3076 3074 3072 3070 3067 3065 3063 3061 3059 3055 3053 3051
3100 3099 3100 3100 3100 3099 3099 3100 3100 3099 3099 3097 3094 3094 3096 3095 3095 3095 3094 3093 3092 3091 3090 3089 3086 3084 3082 3081 3080 3078 3076 3073 3071 3068 3064 3061 3058 3056 3054 3052 3049 3047 3044 3041
3096 3096 3095 3095 3095 3095 3093 3094 3094 3093 3091 3089 3088 3087 3087 3088 3087 3088 3088 3087 3086 3085 3083 3081 3080 3078 3077 3075 3073 3071 3069 3066 3063 3060 3057 3054 3051 3048 3045 3042 3039 3036 3032 3029
3094 3093 3093 3091 3090 3090 3087 3083 3083 3082 3081 3082 3081 3082 3082 3081 3081 3081 3081 3080 3078 3077 3076 3074 3073 3072 3070 3068 3066 3064 3061 3058 3055 3052 3048 3045 3041 3038 3034 3031 3027 3023 3020 3015
3090 3091 3092 3090 3089 3089 3079 3077 3076 3076 3076 3076 3076 3076 3076 3076 3075 3075 3074 3074 3073 3072 3070 3069 3066 3063 3061 3058 3055 3052 3050 3047 3045 3041 3037 3034 3029 3026 3022 3018 3015 3011 3007 3002
3086 3088 3089 3088 3085 3078 3077 3075 3074 3073 3073 3073 3072 3071 3071 3070 3070 3070 3069 3068 3067 3065 3063 3061 3058 3055 3052 3048 3045 3043 3040 3037 3034 3030 3027 3022 3018 3014 3010 3006 3002 2998 2993 2989
3079 3081 3084 3083 3083 3077 3072 3071 3070 3069 3069 3069 3068 3067 3066 3065 3065 3065 3064 3063 3061 3059 3055 3052 3048 3045 3042 3039 3036 3033 3030 3027 3023 3020 3016 3012 3007 3002 2997 2992 2987 2983 2978 2974
3074 3075 3076 3077 3075 3069 3068 3068 3068 3070 3071 3066 3065 3064 3063 3062 3061 3060 3058 3056 3053 3049 3045 3043 3039 3037 3034 3031 3028 3025 3021 3018 3013 3009 3004 3000 2994 2989 2983 2977 2973 2967 2962 2958
3070 3070 3071 3072 3072 3067 3063 3064 3068 3066 3064 3063 3063 3062 3060 3057 3055 3053 3051 3048 3044 3040 3037 3034 3032 3030 3028 3024 3019 3015 3011 3006 3002 2997 2992 2987 2981 2975 2969 2963 2959 2955 2950 2945
3067 3067 3066 3067 3062 3060 3060 3060 3060 3060 3058 3057 3056 3055 3054 3052 3048 3045 3042 3040 3036 3033 3031 3028 3025 3022 3020 3016 3010 3004 3001 2994 2988 2984 2979 2973 2967 2961 2957 2951 2947 2941 2938 2934
3061 3061 3059 3058 3058 3058 3056 3054 3052 3050 3049 3048 3046 3045 3043 3042 3041 3039 3035 3032 3030 3028 3025 3022 3019 3015 3011 3007 3002 2996 2989 2982 2975 2969 2964 2958 2953 2949 2945 2941 2936 2932 2927 2922
3056 3055 3053 3051 3053 3051 3049 3047 3045 3042 3040 3039 3039 3038 3036 3032 3030 3028 3027 3025 3024 3021 3019 3015 3010 3004 2999 2995 2989 2984 2975 2968 2962 2955 2950 2946 2941 2937 2933 2930 2926 2921 2917 2912
3049 3048 3047 3043 3045 3042 3040 3039 3038 3036 3034 3032 3030 3028 3026 3024 3023 3021 3020 3019 3016 3013 3010 3005 2999 2993 2988 2982 2977 2970 2963 2956 2950 2943 2939 2934 2929 2924 2920 2916 2912 2910 2905 2901